Tracking 18957 objects as of 23-Jan-2018
HD Live streaming from Space Station
objects crossing your sky now

SATCOM 3R

Track SATCOM 3R now!
SATCOM 3R is classified as:


NORAD ID: 12967
Int'l Code: 1981-114A
Perigee: 35,792.3 km
Apogee: 35,869.9 km
Inclination: 15.0 °
Period: 1,438.0 minutes
Semi major axis: 42202 km
RCS: 2.5119 m2 (large)
Launch date: November 20, 1981
Source: United States (US)
Launch site: AIR FORCE EASTERN TEST RANGE (AFETR)
aabbcc
Your satellite tracking list
Your tracking list is empty




NASA's NSSDC Master Catalog

Two Line Element Set (TLE):
1 12967U 81114A   18023.52679001 -.00000227  00000-0  00000+0 0  9995
2 12967  15.0429 358.0834 0009194 275.5470 190.3953  1.00138563 97476
Source of the keplerian elements: AFSPC